Reno, NV

10:22 PM PDT on August 28, 2016 (GMT -0700)
Reno - Stead

Weather History for KRTS - May, 2013

Change the Weather History Date:

Sunday, May 26, 2013

  Actual Average (KRNO) Record (KRNO)
Temperature  
Mean Temperature 55 °F 62 °F  
Max Temperature 68 °F 77 °F 91 °F (1949)
Min Temperature 42 °F 48 °F 25 °F (1899)
Degree Days  
Heating Degree Days 10 5  
Month to date heating degree days 186  
Since 1 July heating degree days 4848  
Cooling Degree Days 0 2  
Month to date cooling degree days 24  
Year to date cooling degree days 25  
Growing Degree Days 5 (Base 50)    
Moisture  
Dew Point 25 °F    
Average Humidity 33    
Maximum Humidity 57    
Minimum Humidity 14    
Precipitation  
Precipitation 0.00 in 0.02 in 0.62 in (1964)
Month to date precipitation 0.41  
Year to date precipitation 3.69  
Snow  
Snow 0.00 in 0.00 in 0.00 in ()
Month to date snowfall 0.3  
Since 1 July snowfall 21.8  
Snow Depth -    
Sea Level Pressure  
Sea Level Pressure 30.06 in    
Wind  
Wind Speed 12 mph (West)    
Max Wind Speed 22 mph    
Max Gust Speed 34 mph    
Visibility 10 miles    
Events      
T = Trace of Precipitation, MM = Missing Value Source: NWS Daily Summary

Daily Weather History Graph

Daily Weather History Graph

Search for Another Location

Airport or City:

Trip Planner

Search our weather history database for the weather conditions in past years. The results will help you decide how hot, cold, wet, or windy it might be!

Date:

Astronomy

May. 26, 2013 Rise Set
Actual Time 5:36 AM PDT 8:17 PM PDT
Civil Twilight 5:05 AM PDT 8:48 PM PDT
Nautical Twilight 4:25 AM PDT 9:28 PM PDT
Astronomical Twilight 3:41 AM PDT 10:12 PM PDT
Moon 10:09 PM PDT (5/26) 7:11 AM PDT (5/26)
Length of Visible Light 15h 43m
Length of Day
14h 40m
Waning Gibbous, 96% of the Moon is Illuminated
May 26
Waning Gibbous
May 31
Last Quarter
Jun 8
New
Jun 16
First Quarter
Jun 23
Full

Hourly Weather History & Observations

Time (PDT) Temp. Windchill Dew Point Humidity Pressure Visibility Wind Dir Wind Speed Gust Speed Precip Events Conditions
12:15 AM 50.0 °F - 24.8 °F 37% 30.05 in 10.0 mi WNW 11.5 mph 18.4 mph N/A   Clear
12:35 AM 50.0 °F - 24.8 °F 37% 30.05 in 10.0 mi West 13.8 mph 23.0 mph N/A   Clear
12:55 AM 50.0 °F - 24.8 °F 37% 30.05 in 10.0 mi West 9.2 mph - N/A   Clear
1:15 AM 50.0 °F - 24.8 °F 37% 30.05 in 10.0 mi West 12.7 mph 23.0 mph N/A   Clear
1:35 AM 50.0 °F - 24.8 °F 37% 30.04 in 10.0 mi WNW 12.7 mph - N/A   Clear
1:55 AM 50.0 °F - 24.8 °F 37% 30.04 in 10.0 mi WNW 12.7 mph 20.7 mph N/A   Clear
2:15 AM 48.2 °F - 24.8 °F 40% 30.05 in 10.0 mi WNW 15.0 mph 19.6 mph N/A   Clear
2:35 AM 50.0 °F - 24.8 °F 37% 30.05 in 10.0 mi WNW 5.8 mph - N/A   Clear
2:55 AM 48.2 °F - 24.8 °F 40% 30.05 in 10.0 mi West 9.2 mph - N/A   Clear
3:15 AM 46.4 °F 42.4 °F 24.8 °F 43% 30.05 in 10.0 mi West 8.1 mph - N/A   Clear
3:35 AM 44.6 °F 39.7 °F 24.8 °F 46% 30.04 in 10.0 mi WNW 9.2 mph - N/A   Clear
3:55 AM 46.4 °F 41.1 °F 24.8 °F 43% 30.04 in 10.0 mi WNW 11.5 mph 18.4 mph N/A   Clear
4:15 AM 44.6 °F 38.1 °F 24.8 °F 46% 30.04 in 10.0 mi NW 13.8 mph 18.4 mph N/A   Clear
4:35 AM 46.4 °F 41.1 °F 26.6 °F 46% 30.05 in 10.0 mi WNW 11.5 mph 19.6 mph N/A   Clear
4:55 AM 44.6 °F 39.7 °F 26.6 °F 49% 30.05 in 10.0 mi WNW 9.2 mph - N/A   Clear
5:15 AM 42.8 °F 38.6 °F 24.8 °F 49% 30.05 in 10.0 mi WNW 6.9 mph - N/A   Clear
5:35 AM 44.6 °F 40.7 °F 24.8 °F 46% 30.05 in 10.0 mi WNW 6.9 mph - N/A   Clear
5:55 AM 44.6 °F 39.7 °F 24.8 °F 46% 30.05 in 10.0 mi NNW 9.2 mph - N/A   Clear
6:15 AM 46.4 °F 40.7 °F 24.8 °F 43% 30.05 in 10.0 mi North 12.7 mph - N/A   Clear
6:35 AM 48.2 °F - 26.6 °F 43% 30.05 in 10.0 mi North 12.7 mph 18.4 mph N/A   Clear
6:55 AM 48.2 °F - 26.6 °F 43% 30.06 in 10.0 mi North 10.4 mph 16.1 mph N/A   Clear
7:15 AM 50.0 °F - 26.6 °F 40% 30.05 in 10.0 mi NNW 10.4 mph - N/A   Clear
7:35 AM 51.8 °F - 26.6 °F 38% 30.06 in 10.0 mi North 5.8 mph - N/A   Clear
7:55 AM 53.6 °F - 26.6 °F 35% 30.06 in 10.0 mi North 6.9 mph - N/A   Clear
8:15 AM 53.6 °F - 24.8 °F 33% 30.06 in 10.0 mi North 3.5 mph - N/A   Clear
8:35 AM 55.4 °F - 24.8 °F 31% 30.06 in 10.0 mi Calm Calm - N/A   Clear
8:55 AM 55.4 °F - 24.8 °F 31% 30.06 in 10.0 mi SW 11.5 mph - N/A   Clear
9:15 AM 57.2 °F - 24.8 °F 29% 30.06 in 10.0 mi WSW 12.7 mph 18.4 mph N/A   Clear
9:35 AM 57.2 °F - 24.8 °F 29% 30.06 in 10.0 mi West 12.7 mph 19.6 mph N/A   Clear
9:55 AM 59.0 °F - 24.8 °F 27% 30.05 in 10.0 mi WSW 12.7 mph 23.0 mph N/A   Clear
10:15 AM 59.0 °F - 24.8 °F 27% 30.05 in 10.0 mi SW 15.0 mph 20.7 mph N/A   Clear
10:35 AM 59.0 °F - 24.8 °F 27% 30.04 in 10.0 mi SW 10.4 mph - N/A   Clear
10:55 AM 62.6 °F - 24.8 °F 24% 30.04 in 10.0 mi WSW 12.7 mph 16.1 mph N/A   Clear
11:15 AM 62.6 °F - 24.8 °F 24% 30.04 in 10.0 mi West 13.8 mph 24.2 mph N/A   Partly Cloudy
11:30 AM 62.6 °F - 24.8 °F 24% 30.04 in 10.0 mi SW 16.1 mph 23.0 mph N/A   Scattered Clouds
11:55 AM 64.4 °F - 24.8 °F 22% 30.03 in 10.0 mi SW 13.8 mph 19.6 mph N/A   Mostly Cloudy
12:15 PM 64.4 °F - 17.6 °F 16% 30.03 in 10.0 mi WNW 19.6 mph 29.9 mph N/A   Scattered Clouds
12:35 PM 64.4 °F - 17.6 °F 16% 30.03 in 10.0 mi West 12.7 mph 28.8 mph N/A   Partly Cloudy
12:55 PM 64.4 °F - 19.4 °F 18% 30.03 in 10.0 mi West 16.1 mph 28.8 mph N/A   Clear
1:15 PM 66.2 °F - 17.6 °F 15% 30.03 in 10.0 mi West 17.3 mph 28.8 mph N/A   Clear
1:35 PM 66.2 °F - 15.8 °F 14% 30.03 in 10.0 mi West 21.9 mph 34.5 mph N/A   Clear
1:55 PM 66.2 °F - 17.6 °F 15% 30.03 in 10.0 mi West 16.1 mph 26.5 mph N/A   Clear
2:15 PM 68.0 °F - 19.4 °F 16% 30.03 in 10.0 mi WNW 15.0 mph 25.3 mph N/A   Clear
2:35 PM 66.2 °F - 19.4 °F 17% 30.04 in 10.0 mi West 19.6 mph 25.3 mph N/A   Clear
2:55 PM 66.2 °F - 23.0 °F 19% 30.04 in 10.0 mi West 16.1 mph 32.2 mph N/A   Clear
3:15 PM 66.2 °F - 23.0 °F 19% 30.04 in 10.0 mi West 16.1 mph 26.5 mph N/A   Clear
3:35 PM 66.2 °F - 23.0 °F 19% 30.04 in 10.0 mi West 16.1 mph 26.5 mph N/A   Clear
3:55 PM 66.2 °F - 24.8 °F 21% 30.04 in 10.0 mi WSW 17.3 mph 29.9 mph N/A   Clear
4:15 PM 66.2 °F - 24.8 °F 21% 30.04 in 10.0 mi WSW 17.3 mph 28.8 mph N/A   Clear
4:35 PM 64.4 °F - 23.0 °F 21% 30.04 in 10.0 mi WSW 15.0 mph 26.5 mph N/A   Clear
4:55 PM 64.4 °F - 23.0 °F 21% 30.04 in 10.0 mi West 20.7 mph 27.6 mph N/A   Clear
5:15 PM 64.4 °F - 24.8 °F 22% 30.04 in 10.0 mi West 18.4 mph 25.3 mph N/A   Clear
5:35 PM 64.4 °F - 26.6 °F 24% 30.05 in 10.0 mi West 16.1 mph 27.6 mph N/A   Clear
5:55 PM 62.6 °F - 26.6 °F 26% 30.05 in 10.0 mi WSW 20.7 mph 25.3 mph N/A   Clear
6:15 PM 62.6 °F - 26.6 °F 26% 30.05 in 10.0 mi West 17.3 mph 25.3 mph N/A   Clear
6:35 PM 60.8 °F - 26.6 °F 27% 30.06 in 10.0 mi WNW 18.4 mph 23.0 mph N/A   Clear
6:55 PM 60.8 °F - 26.6 °F 27% 30.07 in 10.0 mi West 20.7 mph 24.2 mph N/A   Clear
7:15 PM 59.0 °F - 28.4 °F 31% 30.07 in 10.0 mi West 19.6 mph 24.2 mph N/A   Clear
7:35 PM 57.2 °F - 28.4 °F 33% 30.08 in 10.0 mi WNW 16.1 mph 24.2 mph N/A   Clear
7:55 PM 57.2 °F - 28.4 °F 33% 30.09 in 10.0 mi WNW 13.8 mph - N/A   Clear
8:15 PM 55.4 °F - 28.4 °F 36% 30.10 in 10.0 mi WNW 8.1 mph - N/A   Clear
8:35 PM 53.6 °F - 28.4 °F 38% 30.11 in 10.0 mi NW 9.2 mph - N/A   Clear
8:55 PM 51.8 °F - 28.4 °F 41% 30.12 in 10.0 mi WNW 10.4 mph - N/A   Clear
9:15 PM 51.8 °F - 28.4 °F 41% 30.13 in 10.0 mi WNW 9.2 mph - N/A   Clear
9:35 PM 50.0 °F - 28.4 °F 43% 30.14 in 10.0 mi West 5.8 mph - N/A   Clear
9:55 PM 50.0 °F - 28.4 °F 43% 30.15 in 10.0 mi WSW 9.2 mph - N/A   Clear
10:15 PM 50.0 °F - 32.0 °F 50% 30.15 in 10.0 mi WSW 6.9 mph - N/A   Clear
10:35 PM 50.0 °F - 32.0 °F 50% 30.16 in 10.0 mi WSW 6.9 mph - N/A   Clear
10:55 PM 48.2 °F - 32.0 °F 54% 30.16 in 10.0 mi West 10.4 mph - N/A   Clear
11:15 PM 48.2 °F - 32.0 °F 54% 30.15 in 10.0 mi West 12.7 mph - N/A   Clear
11:35 PM 46.4 °F 39.8 °F 32.0 °F 57% 30.15 in 10.0 mi WNW 16.1 mph - N/A   Clear
11:55 PM 48.2 °F - 32.0 °F 54% 30.14 in 10.0 mi West 13.8 mph - N/A   Clear